Total_Precipitation_Accumulation
1.25 1.29 1.23 1.20 1.10 1.26 1.52 1.73 1.68 1.83 1.94 1.77 1.51 1.37 1.22 1.06 0.97 0.93 1.10 1.28 1.18 1.14 1.24 1.24 1.21 1.15 1.13 1.04 0.95 0.88 0.81 0.76 0.64 0.46 0.33 0.29 0.26 0.25 0.23 0.23 0.22 0.23 0.19
1.51 1.57 1.48 1.38 1.16 1.25 1.49 1.72 1.76 1.91 1.88 1.87 1.50 1.40 1.26 1.22 1.10 1.06 1.14 1.25 1.22 1.07 1.04 1.13 1.21 1.25 1.27 1.21 1.06 0.87 0.78 0.76 0.66 0.52 0.40 0.33 0.29 0.28 0.31 0.33 0.30 0.24 0.16
1.83 1.85 1.68 1.44 1.32 1.51 1.62 1.62 1.67 2.03 1.86 1.72 1.51 1.57 1.52 1.43 1.25 1.16 1.20 1.22 1.06 0.99 0.93 0.92 1.05 1.20 1.35 1.37 1.28 1.10 0.89 0.76 0.65 0.50 0.40 0.32 0.27 0.25 0.27 0.31 0.35 0.30 0.20
1.86 1.99 1.69 1.39 1.55 1.74 1.71 1.64 1.68 1.89 1.89 1.94 1.81 1.69 1.59 1.45 1.14 1.07 1.06 1.00 0.98 0.78 0.83 0.97 1.02 1.08 1.35 1.50 1.50 1.46 1.19 0.89 0.65 0.49 0.40 0.33 0.29 0.24 0.21 0.21 0.26 0.31 0.24
1.29 1.34 1.04 0.98 1.25 1.34 1.22 1.19 1.44 1.59 1.60 1.73 1.73 1.49 1.30 1.13 0.95 0.90 0.90 0.74 0.79 0.76 0.73 0.90 1.02 1.04 1.30 1.56 1.76 1.79 1.58 1.26 0.93 0.67 0.57 0.48 0.40 0.30 0.22 0.19 0.20 0.26 0.24
0.85 0.89 0.72 0.73 0.99 1.05 0.97 1.09 1.19 1.23 1.17 1.25 1.16 0.92 0.89 0.77 0.77 0.73 0.63 0.63 0.62 0.59 0.65 0.78 0.93 0.83 1.12 1.43 1.65 1.76 1.76 1.56 1.23 0.98 0.85 0.73 0.64 0.47 0.29 0.21 0.20 0.21 0.20
0.74 0.83 0.72 0.80 0.95 0.95 0.92 0.98 1.04 0.96 0.81 0.98 1.04 0.75 0.60 0.56 0.58 0.54 0.50 0.50 0.45 0.48 0.62 0.76 0.88 0.90 0.78 0.88 1.17 1.38 1.72 1.82 1.54 1.21 1.06 0.96 0.88 0.68 0.46 0.34 0.26 0.22 0.18
0.63 0.72 0.66 0.58 0.63 0.65 0.60 0.65 0.82 0.84 0.74 0.87 0.96 0.83 0.58 0.53 0.49 0.37 0.42 0.42 0.41 0.51 0.60 0.65 0.81 0.95 0.92 0.98 0.80 0.89 1.30 1.63 1.75 1.61 1.38 1.14 0.96 0.77 0.61 0.52 0.39 0.27 0.22
0.39 0.47 0.50 0.50 0.55 0.62 0.61 0.61 0.65 0.69 0.63 0.64 0.79 0.90 0.69 0.47 0.40 0.37 0.39 0.39 0.45 0.57 0.65 0.76 0.81 0.86 0.93 1.07 1.04 0.96 1.10 1.19 1.65 1.93 1.70 1.29 0.91 0.71 0.65 0.66 0.58 0.40 0.32
0.27 0.30 0.33 0.34 0.41 0.52 0.59 0.54 0.55 0.58 0.57 0.50 0.56 0.65 0.66 0.60 0.53 0.41 0.39 0.44 0.48 0.59 0.74 0.82 0.91 0.91 0.92 1.00 1.13 1.13 0.99 0.96 1.23 1.57 1.68 1.57 1.23 0.87 0.69 0.76 0.94 0.85 0.56
0.26 0.27 0.28 0.28 0.31 0.35 0.39 0.42 0.49 0.52 0.54 0.50 0.49 0.56 0.63 0.66 0.65 0.57 0.45 0.45 0.44 0.41 0.56 0.75 0.89 0.93 0.88 0.97 1.16 1.21 1.18 1.04 0.92 0.93 1.20 1.41 1.37 1.13 0.90 0.95 1.30 1.49 1.30
0.26 0.29 0.30 0.30 0.32 0.33 0.34 0.36 0.40 0.44 0.50 0.54 0.53 0.56 0.65 0.70 0.65 0.65 0.57 0.49 0.47 0.42 0.47 0.65 0.90 1.03 0.99 1.00 0.92 0.93 0.95 0.84 0.76 0.74 0.83 0.96 1.09 1.10 1.08 1.17 1.46 1.75 1.87
0.23 0.27 0.32 0.34 0.37 0.37 0.37 0.38 0.38 0.41 0.47 0.55 0.56 0.54 0.57 0.63 0.69 0.71 0.65 0.56 0.59 0.59 0.69 0.73 0.81 0.94 0.91 0.96 0.90 0.76 0.60 0.54 0.51 0.53 0.65 0.80 0.96 1.11 1.16 1.16 1.31 1.52 1.69
0.24 0.28 0.29 0.30 0.34 0.36 0.38 0.40 0.37 0.36 0.46 0.55 0.60 0.68 0.66 0.59 0.74 0.82 0.78 0.77 0.74 0.78 0.94 0.88 0.80 0.80 0.83 0.87 0.77 0.65 0.48 0.43 0.39 0.37 0.40 0.41 0.47 0.58 0.69 0.77 0.87 1.02 1.16
0.26 0.28 0.29 0.30 0.32 0.35 0.38 0.40 0.41 0.45 0.52 0.56 0.63 0.77 0.83 0.78 0.78 0.83 0.89 0.93 0.98 0.94 0.93 0.90 0.80 0.74 0.72 0.70 0.63 0.54 0.41 0.38 0.37 0.34 0.33 0.32 0.32 0.36 0.38 0.41 0.44 0.49 0.54
0.22 0.27 0.32 0.34 0.34 0.35 0.43 0.50 0.49 0.50 0.58 0.68 0.80 0.89 0.93 0.95 0.94 0.87 0.91 0.96 0.98 1.04 1.00 0.85 0.78 0.79 0.71 0.55 0.52 0.47 0.40 0.42 0.39 0.35 0.33 0.30 0.29 0.32 0.34 0.34 0.30 0.31 0.33
0.21 0.24 0.30 0.34 0.35 0.42 0.60 0.78 0.76 0.68 0.74 0.83 0.93 1.03 1.07 1.12 1.12 1.01 0.96 0.94 0.94 1.02 0.97 0.83 0.77 0.79 0.68 0.52 0.46 0.43 0.41 0.40 0.36 0.37 0.33 0.29 0.28 0.27 0.31 0.31 0.29 0.27 0.26
0.18 0.18 0.20 0.25 0.28 0.34 0.50 0.81 0.99 1.01 0.98 0.91 0.96 1.12 1.20 1.17 1.08 1.02 1.02 0.98 0.96 1.04 0.99 0.91 0.88 0.83 0.75 0.65 0.56 0.50 0.43 0.39 0.37 0.39 0.35 0.30 0.28 0.26 0.25 0.25 0.25 0.23 0.23
0.18 0.18 0.19 0.24 0.29 0.30 0.37 0.58 0.80 0.92 0.95 0.92 0.97 1.02 1.05 1.12 1.10 1.02 0.97 0.94 0.93 1.04 1.03 0.94 1.01 1.00 0.89 0.78 0.64 0.54 0.46 0.44 0.39 0.37 0.37 0.34 0.32 0.27 0.25 0.23 0.23 0.22 0.20
0.17 0.21 0.24 0.29 0.31 0.27 0.28 0.41 0.57 0.68 0.74 0.78 0.84 0.89 0.92 0.96 1.02 1.07 1.01 0.96 0.98 1.00 1.01 1.00 1.05 1.18 1.08 0.92 0.74 0.61 0.52 0.48 0.44 0.34 0.35 0.38 0.36 0.31 0.27 0.24 0.22 0.20 0.20
0.13 0.19 0.26 0.29 0.27 0.24 0.29 0.41 0.46 0.42 0.47 0.53 0.56 0.58 0.69 0.85 0.95 1.01 0.96 0.94 0.98 0.99 0.98 1.03 1.07 1.21 1.23 1.06 0.83 0.63 0.55 0.53 0.51 0.45 0.38 0.32 0.30 0.26 0.24 0.25 0.24 0.21 0.17
0.17 0.20 0.23 0.26 0.25 0.21 0.26 0.30 0.28 0.27 0.30 0.35 0.38 0.37 0.38 0.51 0.69 0.81 0.84 0.84 0.89 0.94 0.98 1.00 1.07 1.16 1.22 1.11 0.93 0.79 0.65 0.54 0.52 0.52 0.51 0.47 0.36 0.31 0.25 0.21 0.22 0.23 0.21
0.22 0.26 0.27 0.29 0.29 0.30 0.23 0.19 0.16 0.18 0.23 0.29 0.33 0.33 0.26 0.25 0.39 0.54 0.65 0.70 0.72 0.72 0.80 0.95 1.06 1.08 1.18 1.21 1.12 0.93 0.81 0.69 0.56 0.54 0.56 0.59 0.52 0.41 0.31 0.28 0.30 0.25 0.24
0.29 0.32 0.33 0.36 0.42 0.39 0.27 0.18 0.15 0.15 0.20 0.27 0.32 0.32 0.31 0.31 0.34 0.40 0.51 0.60 0.64 0.62 0.60 0.68 0.85 1.04 1.19 1.33 1.28 1.18 1.08 0.95 0.79 0.69 0.64 0.63 0.60 0.51 0.42 0.34 0.34 0.29 0.26
0.37 0.37 0.39 0.43 0.49 0.54 0.40 0.25 0.19 0.19 0.25 0.28 0.32 0.33 0.34 0.32 0.30 0.26 0.35 0.42 0.48 0.57 0.57 0.59 0.71 0.93 1.12 1.26 1.40 1.33 1.20 1.01 0.84 0.73 0.64 0.56 0.55 0.56 0.52 0.42 0.35 0.34 0.29
0.46 0.43 0.41 0.45 0.52 0.62 0.53 0.31 0.24 0.26 0.34 0.38 0.44 0.44 0.35 0.29 0.23 0.18 0.26 0.35 0.39 0.42 0.51 0.56 0.63 0.76 0.93 1.05 1.18 1.18 1.03 0.93 0.79 0.68 0.57 0.48 0.45 0.48 0.54 0.50 0.41 0.34 0.30